Regional Weather Roundup
Issued by NWS Green Bay, WI

Home | Current Version | Previous Version | Text Only | Print | Product List | Glossary On
Versions: 1 2 3 4 5 6 7 8 9 10 11 12 13 14 15 16 17 18 19 20 21 22 23 24 25 26 27 28 29 30 31 32 33 34 35 36 37 38 39 40 41 42 43 44 45 46 47 48 49 50
000
ASUS43 KGRB 282359
RWRGRB

NORTH-CENTRAL AND NORTHEAST WISCONSIN REGIONAL WEATHER ROUNDUP
NATIONAL WEATHER SERVICE GREEN BAY WI
700 PM CDT THU AUG 28 2014

WIZ005-009-010>012-018-019-290100-
NORTH CENTRAL WISCONSIN

CITY           SKY/WX    TMP DP  RH WIND       PRES   REMARKS
IRONWOOD       NOT AVBL
MANITOWISH WTR NOT AVBL
ARBOR VITAE    NOT AVBL
EAGLE RIVER    NOT AVBL
LAND O LAKES   NOT AVBL
RHINELANDER    CLOUDY    65  58  78 S3        30.07F
PHILLIPS       NOT AVBL
ANTIGO         NOT AVBL
TOMAHAWK       NOT AVBL
MERRILL        NOT AVBL
$$

WIZ013-073-290100-
NORTHEAST WISCONSIN

CITY           SKY/WX    TMP DP  RH WIND       PRES   REMARKS
IRON MOUNTAIN  CLOUDY    65  57  75 S8        30.07S
MARINETTE      CLOUDY    64  54  68 S9        30.08S
$$

WIZ017-030-035>037-045-290100-
CENTRAL WISCONSIN

CITY           SKY/WX    TMP DP  RH WIND       PRES   REMARKS
MEDFORD        NOT AVBL
WAUSAU         LGT RAIN  65  62  90 SE9       30.04F
MOSINEE        NOT AVBL
MARSHFIELD     CLOUDY    66  64  93 E8        30.04S
WISC RAPIDS    LGT RAIN  67  63  87 E8        30.05F
STEVENS POINT  NOT AVBL
WAUPACA        NOT AVBL
SHAWANO        DRIZZLE   68  60  74 SE6       30.08R
CLINTONVILLE   NOT AVBL
$$

WIZ038-039-048-051-290100-
FOX VALLEY

CITY           SKY/WX    TMP DP  RH WIND       PRES   REMARKS
NWS GREEN BAY  CLOUDY    64  55  72 SE8       30.08S
APPLETON       LGT RAIN  64  54  68 SE10      30.09S
OSHKOSH        CLOUDY    65  54  67 SE8       30.08S
FOND DU LAC    CLOUDY    65  53  65 SE6       30.08F
$$

WIZ022-050-052-290100-
EAST CENTRAL WISCONSIN

CITY           SKY/WX    TMP DP  RH WIND       PRES   REMARKS
STURGEON BAY   CLOUDY    63  54  72 SE7       30.10S
MANITOWOC      NOT AVBL
SHEBOYGAN      CLOUDY    65  54  67 S3        30.09S
$$

LMZ563-521-522-541>543-290100-
LAKESHORE

STATION/POSITION TIME  TEMP    WIND        PRES    VSBY  WAVE
                       AIR SEA DIR/SP/G                  HT/PER
                 (UTC) (F)     (DEG/KT/KT) (MB)    (MI)  (FT/S)
SHEBOYGAN LKSHOR 2300   65 70  150/  6/  6 1019.1F
KEWAUNEE LKSHORE 2300   65     140/  4/  5 1018.0F
ALGOMA MARINA    2300          190/  8/ 10   N/A
NORTHPORT PIER   2300   64     120/  9/ 11 1019.3F
N MID LAKE BUOY  2300   63 66  120/  6/  6 1019.9F         0
S GREEN BAY BUOY 2300   67     VRB 12/ 14  1019.2F
SISTER BAY LKSHO 2300   65     160/  6/  8   N/A
CHAMBERS ISLAND  2300   65     130/  3/  8 1019.3S
MENOMINEE LKSHOR 2300   66     140/ 12/ 13 1019.2F
$$



USA.gov is the U.S. government's official web portal to all federal, state and local government web resources and services.